FREGAT DEB

Last updated on Wed Aug 19 2026 00:02:04 GMT+0000 (Coordinated Universal Time)

1 49271U 11037PF 26230.21947865 .00015547 00000+0 24105-1 0 9994 2 49271 51.6387 175.2376 0920509 58.9811 309.8171 12.43536107232764
UTC large
Height (km)
Speed (km/s)
/
Latitude / Longitude
Inclination (degrees)
Orbital Period (minutes)
Azimuth
Elevation
Range (km)
Doppler Factor

Next 0 passes for location: London (51.5072 / 0.1276)

No passes found over London.
FREGAT DEB